Location: Pella
(41.4080°N, 92.9160°W)
Time: 14:41:48
(UTC-05:00)

ATLAS 5 CENTAUR R/B - Visible Passes

Search period start: 25 October 2014 00:00
Search period end: 03 November 2014 23:00
Orbit: 359 x 362 km, 35.7° (Epoch: 25 October)

Date Brightness Start Highest point End Pass type
(mag) Time Alt. Az. Time Alt. Az. Time Alt. Az.
25 Oct 4.2 05:18:51 11° SE 05:18:51 11° SE 05:19:03 10° SE visible
25 Oct 3.4 06:51:21 10° SW 06:52:41 12° SSW 06:54:00 10° S visible
26 Oct 3.5 05:46:09 14° SSE 05:46:09 14° SSE 05:46:59 10° SSE visible
